Regional Weather Roundup
Issued by NWS

Home | Current Version | Previous Version | Graphics & Text | Print | Product List | Glossary On
Versions: 1 2 3 4 5 6 7 8 9 10 11 12 13 14 15 16 17 18 19 20 21 22 23 24 25 26 27 28 29 30 31 32 33 34 35 36 37 38 39 40 41 42 43 44 45 46 47 48 49 50
899
ASUS45 KSLC 270910
RWRUT

UTAH REGIONAL WEATHER ROUNDUP
NATIONAL WEATHER SERVICE SALT LAKE CITY UT
300 AM MDT THU APR 27 2017

UTZ001>011-023>025-271000-

NORTHERN UTAH

CITY           SKY/WX    TMP DP  RH WIND       PRES   REMARKS
BRIGHAM CITY   CLOUDY    42  38  85 S5        29.75R
HILL AFB       CLOUDY    43  39  87 SW8       29.74R
LOGAN          MOCLDY    44  37  76 CALM      29.72R
OGDEN          CLOUDY    43  40  89 W9        29.73F
SALT LAKE CITY CLOUDY    44  41  89 SE8       29.75R
TOOELE VALLEY  MOCLDY    41  37  87 SE7       29.77S
WENDOVER       PTCLDY    45  25  45 NW29G36   29.80R
HEBER CITY     MIX PCPN  39  37  93 CALM      29.71S
WEST JORDAN    CLOUDY    43  43 100 E6        29.76S

$$

UTZ011>015-024>027-271000-

CENTRAL/NORTHEAST UTAH

CITY           SKY/WX    TMP DP  RH WIND       PRES   REMARKS
PROVO AIRPORT  MOCLDY    40  37  89 NE6       29.76F
MOAB/CANYONLAN CLOUDY    52  41  66 W8        29.65F
DELTA          CLOUDY    43  41  93 CALM      29.78F
PRICE          CLOUDY    38  38 100 NE3       29.68F
RICHFIELD      CLOUDY    46  41  81 N6        29.78S
ROOSEVELT      CLOUDY    41  37  87 CALM      29.68F
VERNAL         CLOUDY    43  40  89 CALM      29.65F

$$

UTZ013>016-019>022-027-271000-

SOUTHERN UTAH

CITY           SKY/WX    TMP DP  RH WIND       PRES   REMARKS
BRYCE CANYON   MOCLDY    38  34  85 NW8       29.80F WCI  32
CEDAR CITY     MOCLDY    44  38  79 CALM      29.77F
MILFORD        CLOUDY    45  41  86 CALM      29.77S
ST GEORGE      CLOUDY    65  36  34 W7        29.66F
HANKSVILLE     CLEAR     45  41  87 NE3       29.70F
KANAB          CLEAR     57  36  44 SW7G13    29.75F
BLANDING       CLOUDY    45  40  84 CALM      29.79F

$$

REGIONAL REPORTS     COLORADO/ARIZONA

CITY           SKY/WX    TMP DP  RH WIND       PRES   REMARKS
CRAIG, CO      LGT RAIN  39  34  82 CALM      29.65F
GRAND JUNCTION CLOUDY    44  40  85 NE3       29.66F
RIFLE, CO      CLOUDY    41  39  93 E7        29.68F
MONTROSE, CO   CLOUDY    42  33  70 SW6       29.71F
CORTEZ, CO     LGT RAIN  43  41  93 SE3       29.76F FOG
COLORADO CITY    N/A     59  34  38 W10G16    29.76S
PAGE, AZ       MOCLDY    61  32  33 NW5       29.67F
GRAND CANYON   MOCLDY    46  27  47 SW8       29.85F
KINGMAN, AZ    CLEAR     64  37  36 SW9       29.72F
FLAGSTAFF, AZ  MOCLDY    50  27  40 SW20G31   29.84F

$$

REGIONAL REPORTS    NEVADA/IDAHO/WYOMING

CITY           SKY/WX    TMP DP  RH WIND       PRES   REMARKS
LAS VEGAS, NV  MOCLDY    70  43  37 S9        29.66F
ELY, NY        LGT RAIN  39  36  89 NW10      29.86S WCI  32
ELKO, NV       MOCLDY    40  27  59 N8        29.90R WCI  34
POCATELLO, ID  CLOUDY    40  36  86 W33G40    29.70R WCI  28
BURLEY, ID     FLURRIES  38  32  79 W25G40    29.73S WCI  27
FORT BRIDGER,  FLURRIES  36  36 100 W18G24    29.68F WCI  26
EVANSTON, WY   FOG       33  33 100 SW16      29.67S VSB 1/4 WCI  23
ROCK SPRINGS,  CLOUDY    36  31  82 W20       29.63F WCI  25
KEMMERER, WY   SNOW      32  32 100 W18G28    29.65F VSB 1/2 WCI  20

$$




USA.gov is the U.S. government's official web portal to all federal, state and local government web resources and services.